CW0565 Weather Reports


time (UTC)temp
C
wind
direction
speed
KPH
gust
KPH
rain 1hr
cm
rain 24hr
cm
rain mn
cm
humidity
%
barometer
mb
20260906081512 15 277 14.5 25.7 0.00 0.00 0.00 57 1018.2
20260906080010 15 275 9.7 20.9 0.00 0.00 0.00 60 1017.9
20260906074510 14 247 9.7 19.3 0.00 0.00 0.00 64 1017.9
20260906073023 13 248 6.4 24.1 0.00 0.00 0.00 66 1017.7
20260906071509 13 217 6.4 11.3 0.00 0.00 0.00 72 1018.0
20260906070009 12 163 4.8 14.5 0.00 0.00 0.00 74 1017.9
20260906064509 11 163 1.6 9.7 0.00 0.00 0.00 78 1017.8
20260906063011 10 161 4.8 11.3 0.00 0.00 0.00 82 1017.9
20260906061510 9 161 9.7 17.7 0.00 0.00 0.00 84 1017.7
20260906060009 8 155 9.7 14.5 0.00 0.00 0.00 88 1017.6
20260906054512 8 171 0.0 3.2 0.00 0.00 0.00 88 1017.4
20260906053009 8 171 0.0 1.6 0.00 0.00 0.00 87 1017.4
20260906051515 8 171 0.0 8.0 0.00 0.00 0.00 86 1017.3
20260906050010 8 171 4.8 8.0 0.00 0.00 0.00 85 1017.4
20260906044510 8 171 4.8 8.0 0.00 0.00 0.00 84 1017.1
20260906043010 8 171 0.0 8.0 0.00 0.00 0.00 84 1016.8
20260906041510 8 182 6.4 9.7 0.00 0.00 0.00 83 1016.6
20260906040010 9 238 0.0 12.9 0.00 0.00 0.00 79 1016.5
20260906034512 9 21 0.0 4.8 0.00 0.00 0.00 83 1016.3
20260906033010 9 21 1.6 6.4 0.00 0.00 0.00 83 1016.2
20260906031511 9 21 3.2 6.4 0.00 0.00 0.00 83 1016.1
20260906030009 10 20 4.8 11.3 0.00 0.00 0.00 80 1015.9
20260906024509 10 18 0.0 3.2 0.00 0.00 0.00 78 1015.9
20260906023009 11 17 0.0 12.9 0.00 0.00 0.00 73 1015.5
20260906021510 11 35 3.2 14.5 0.00 0.00 0.00 72 1015.3
20260906020009 11 296 1.6 12.9 0.00 0.00 0.00 74 1015.4
20260906014510 10 306 3.2 8.0 0.00 0.00 0.00 78 1015.3
20260906013009 11 300 0.0 8.0 0.00 0.00 0.00 77 1015.2
20260906011510 11 5 6.4 14.5 0.00 0.00 0.00 70 1015.1
20260906010010 11 295 1.6 11.3 0.00 0.00 0.00 71 1015.0
20260906004510 11 315 4.8 19.3 0.00 0.00 0.00 70 1015.0
20260906003010 11 236 1.6 6.4 0.00 0.00 0.00 71 1015.0
20260906001511 11 292 1.6 8.0 0.00 0.00 0.00 71 1014.9
20260906000010 11 288 1.6 8.0 0.00 0.03 0.00 71 1014.4
20260905234508 12 288 4.8 11.3 0.00 0.03 0.00 71 1014.3
20260905233012 12 277 1.6 12.9 0.00 0.03 0.00 73 1014.1
20260905231513 12 288 3.2 12.9 0.00 0.03 0.00 73 1013.7
20260905230013 12 284 4.8 17.7 0.00 0.03 0.00 71 1013.4
20260905224509 12 286 4.8 12.9 0.00 0.03 0.00 71 1013.3
20260905223009 12 326 3.2 12.9 0.00 0.03 0.00 71 1013.0
20260905221513 12 290 8.0 16.1 0.00 0.03 0.00 71 1012.6
20260905220009 12 309 9.7 20.9 0.00 0.03 0.03 71 1012.4
20260905214509 12 293 4.8 16.1 0.00 0.03 0.03 71 1012.3
20260905213010 12 286 4.8 11.3 0.00 0.03 0.03 71 1012.2
20260905211509 13 282 3.2 16.1 0.00 0.03 0.03 70 1012.0
20260905210010 13 308 11.3 20.9 0.00 0.03 0.03 71 1011.8
20260905204510 12 293 6.4 14.5 0.00 0.03 0.03 72 1011.4
20260905203010 13 279 6.4 12.9 0.00 0.03 0.03 72 1011.2
20260905201515 13 286 8.0 20.9 0.00 0.03 0.03 71 1011.1
20260905200010 13 283 0.0 17.7 0.00 0.05 0.03 71 1010.9
20260905194510 13 291 1.6 4.8 0.00 0.05 0.03 71 1010.7
20260905193009 13 295 1.6 12.9 0.00 0.05 0.03 71 1010.4
20260905191512 13 309 1.6 16.1 0.00 0.05 0.03 70 1010.3
20260905190030 13 256 3.2 25.7 0.00 0.20 0.03 70 1009.9
20260905184510 14 247 1.6 17.7 0.00 0.20 0.03 69 1009.7
20260905183014 14 184 3.2 8.0 0.00 0.20 0.03 68 1009.3
20260905181515 14 335 0.0 19.3 0.00 0.20 0.03 67 1008.9
20260905180017 15 270 11.3 24.1 0.00 0.25 0.03 66 1008.8
20260905174509 15 288 6.4 16.1 0.00 0.25 0.03 65 1008.3
20260905173009 15 276 8.0 24.1 0.00 0.25 0.03 65 1008.0
20260905171508 15 294 8.0 29.0 0.00 0.25 0.03 65 1007.5
20260905170009 16 275 11.3 30.6 0.00 0.33 0.03 65 1007.2
20260905164510 16 260 12.9 29.0 0.00 0.33 0.03 64 1007.0
20260905163011 16 271 16.1 32.2 0.00 0.33 0.03 63 1006.7
20260905161510 16 274 12.9 27.4 0.00 0.33 0.03 61 1006.6
20260905160011 16 311 16.1 40.2 0.00 0.46 0.03 56 1006.3
20260905154509 17 300 20.9 37.0 0.00 0.46 0.03 53 1006.1
20260905153012 17 355 25.7 43.5 0.00 0.46 0.03 53 1006.1
20260905151509 17 311 16.1 32.2 0.00 0.46 0.03 51 1005.6
20260905150010 16 275 20.9 43.5 0.00 0.46 0.03 52 1005.3
20260905144509 16 282 27.4 45.1 0.00 0.46 0.03 53 1005.0
20260905143019 17 322 17.7 38.6 0.00 0.46 0.03 49 1004.6
20260905141510 17 284 16.1 37.0 0.00 0.46 0.03 50 1004.4
20260905140012 17 282 6.4 33.8 0.00 0.46 0.03 51 1004.2
20260905134511 17 276 14.5 38.6 0.00 0.46 0.03 52 1003.8
20260905133010 17 77 19.3 32.2 0.00 0.46 0.03 52 1003.8
20260905131518 17 289 12.9 38.6 0.00 0.46 0.03 52 1003.2
20260905130017 17 306 27.4 45.1 0.00 0.46 0.03 52 1003.0
20260905124509 17 285 25.7 38.6 0.00 0.46 0.03 52 1002.9
20260905123009 17 280 25.7 43.5 0.00 0.46 0.03 52 1002.6
20260905121509 17 299 12.9 33.8 0.00 0.46 0.03 54 1002.4
20260905120009 16 283 8.0 27.4 0.00 0.46 0.03 56 1002.3
20260905114510 16 275 19.3 33.8 0.00 0.46 0.03 56 1002.1
20260905113013 16 271 19.3 40.2 0.00 0.46 0.03 56 1002.1
20260905111510 17 315 14.5 29.0 0.00 0.46 0.03 57 1002.0
20260905110009 16 269 12.9 32.2 0.00 0.46 0.03 58 1001.5
20260905104510 16 290 17.7 32.2 0.00 0.46 0.03 59 1001.4
20260905103015 16 315 14.5 37.0 0.00 0.46 0.03 61 1001.2
20260905101509 15 277 9.7 38.6 0.00 0.46 0.03 64 1001.2
20260905100015 15 319 11.3 32.2 0.00 0.46 0.03 62 1001.0
20260905094512 16 247 6.4 27.4 0.00 0.46 0.03 65 1000.8
20260905093009 15 250 8.0 25.7 0.00 0.46 0.03 66 1000.9
20260905091510 15 250 8.0 24.1 0.00 0.46 0.03 68 1000.6
20260905090010 15 220 4.8 24.1 0.00 0.46 0.03 70 1000.5
20260905084510 14 234 9.7 22.5 0.00 0.46 0.03 73 1000.4
20260905083010 14 303 4.8 16.1 0.00 0.46 0.03 74 1000.1